Location: Northcutt
(34.7304°N, 84.4305°W)
Time: 08:10:10
(UTC+00:00)

S-56A Canister/Altair - Pass Details

Date: 09 October 2022
Orbit: 638 x 2494 km, 38.9° (Epoch: 08 December)

Event Time Altitude Azimuth Distance (km) Brightness Sun altitude
Rises 03:46:03 0° 230° (SW) 6,131 12.2 -53.5°
Reaches altitude 10° 03:50:05 10° 228° (SW) 5,149 11.7 -54.1°
Enters shadow 03:51:34 14° 227° (SW) 4,790 11.5 -54.3°
Maximum altitude 04:04:57 67° 150° (SSE) 2,421 - -56.0°
Drops below altitude 10° 04:16:41 10° 72° (ENE) 4,171 - -57.4°
Sets 04:19:35 0° 69° (ENE) 4,945 - -57.8°
